Wetterdaten: aktuell Freitag, 16.11.2018 18:00
Datum Zeit Temp. A. Aussen2m Boden Feuchte A. Feuchte 2 Luftdruck Regen Wind Richtung Richtung Sonnenschein
16.11.2018 18:00 9,7 C 32,4 C 10,8 C 64 % 99 % 1025,8 hPa 0,0 l/m 11,5 km/h (2 Bft) O-NO 75 0 min
16.11.2018 17:55 9,8 C 32,4 C 10,8 C 64 % 99 % 1025,8 hPa 0,0 l/m 7,3 km/h (2 Bft) SO 130 0 min
16.11.2018 17:50 10,0 C 32,4 C 10,8 C 64 % 99 % 1024,8 hPa 0,0 l/m 13,3 km/h (3 Bft) NO 40 0 min
16.11.2018 17:45 10,0 C 32,4 C 10,8 C 63 % 99 % 1024,8 hPa 0,0 l/m 6,1 km/h (2 Bft) O 85 0 min
16.11.2018 17:40 10,1 C 32,4 C 10,8 C 63 % 99 % 1024,8 hPa 0,0 l/m 3,6 km/h (1 Bft) SO 130 0 min
16.11.2018 17:35 10,2 C 32,4 C 10,8 C 63 % 99 % 1024,8 hPa 0,0 l/m 8,5 km/h (2 Bft) O 80 0 min
16.11.2018 17:30 10,3 C 32,4 C 10,8 C 62 % 99 % 1024,8 hPa 0,0 l/m 5,4 km/h (2 Bft) O-SO 105 0 min
16.11.2018 17:25 10,3 C 32,4 C 10,8 C 62 % 99 % 1024,8 hPa 0,0 l/m 4,2 km/h (1 Bft) O 100 0 min
16.11.2018 17:20 10,4 C 32,4 C 10,8 C 62 % 99 % 1024,8 hPa 0,0 l/m 9,1 km/h (2 Bft) O-NO 75 0 min
16.11.2018 17:15 10,2 C 32,4 C 10,8 C 62 % 99 % 1024,8 hPa 0,0 l/m 7,9 km/h (2 Bft) O-NO 65 0 min
16.11.2018 17:10 10,4 C 32,4 C 10,8 C 61 % 99 % 1024,8 hPa 0,0 l/m 1,2 km/h (1 Bft) NO 45 0 min
16.11.2018 17:05 10,6 C 32,4 C 10,8 C 60 % 99 % 1025,8 hPa 0,0 l/m 3,0 km/h (1 Bft) N 10 0 min
16.11.2018 17:00 10,6 C 32,4 C 10,8 C 59 % 99 % 1025,8 hPa 0,0 l/m 3,6 km/h (1 Bft) NO 40 0 min
16.11.2018 16:55 11,0 C 32,4 C 10,8 C 57 % 99 % 1025,8 hPa 0,0 l/m 0,6 km/h (0 Bft) NO 45 0 min
16.11.2018 16:50 11,1 C 32,4 C 10,8 C 56 % 99 % 1024,8 hPa 0,0 l/m 1,2 km/h (1 Bft) NO 35 0 min
16.11.2018 16:45 11,7 C 32,4 C 10,8 C 54 % 99 % 1024,8 hPa 0,0 l/m 0,6 km/h (0 Bft) NO 50 0 min
16.11.2018 16:40 11,9 C 32,4 C 10,8 C 53 % 99 % 1024,8 hPa 0,0 l/m 3,0 km/h (1 Bft) NO 45 0 min
16.11.2018 16:35 12,6 C 32,4 C 10,8 C 52 % 99 % 1024,8 hPa 0,0 l/m 1,8 km/h (1 Bft) O-SO 110 0 min
16.11.2018 16:30 12,9 C 32,4 C 10,8 C 51 % 99 % 1024,8 hPa 0,0 l/m 2,4 km/h (1 Bft) O-SO 105 0 min
16.11.2018 16:25 13,1 C 32,4 C 10,8 C 51 % 99 % 1024,8 hPa 0,0 l/m 2,4 km/h (1 Bft) O-SO 120 0 min
16.11.2018 16:20 13,3 C 32,4 C 10,8 C 50 % 99 % 1025,8 hPa 0,0 l/m 3,0 km/h (1 Bft) O-SO 110 0 min
16.11.2018 16:15 13,3 C 32,4 C 10,8 C 50 % 99 % 1025,8 hPa 0,0 l/m 4,8 km/h (1 Bft) SO 125 0 min
16.11.2018 16:10 13,3 C 32,4 C 10,8 C 50 % 99 % 1025,8 hPa 0,0 l/m 3,6 km/h (1 Bft) O-SO 120 0 min
16.11.2018 16:05 13,4 C 32,4 C 10,8 C 50 % 99 % 1025,8 hPa 0,0 l/m 4,8 km/h (1 Bft) SO 130 0 min
16.11.2018 16:00 13,6 C 32,4 C 10,8 C 50 % 99 % 1025,8 hPa 0,0 l/m 3,6 km/h (1 Bft) O 100 0 min
16.11.2018 15:55 13,6 C 32,4 C 10,8 C 50 % 99 % 1025,8 hPa 0,0 l/m 4,2 km/h (1 Bft) SO 140 0 min
16.11.2018 15:50 14,0 C 32,4 C 10,8 C 49 % 99 % 1025,8 hPa 0,0 l/m 4,2 km/h (1 Bft) SO 125 0 min
16.11.2018 15:45 14,2 C 32,4 C 10,8 C 49 % 99 % 1025,8 hPa 0,0 l/m 3,0 km/h (1 Bft) SO 145 0 min
16.11.2018 15:40 14,5 C 32,4 C 10,8 C 49 % 99 % 1025,8 hPa 0,0 l/m 3,0 km/h (1 Bft) S-SO 150 0 min
16.11.2018 15:35 14,2 C 32,4 C 10,8 C 49 % 99 % 1024,8 hPa 0,0 l/m 4,8 km/h (1 Bft) O-NO 65 0 min
16.11.2018 15:30 14,3 C 32,4 C 10,8 C 50 % 99 % 1024,8 hPa 0,0 l/m 6,7 km/h (2 Bft) O 90 0 min
16.11.2018 15:25 14,2 C 32,4 C 10,8 C 50 % 99 % 1024,8 hPa 0,0 l/m 2,4 km/h (1 Bft) W 270 0 min
16.11.2018 15:20 14,0 C 32,4 C 10,8 C 50 % 99 % 1024,8 hPa 0,0 l/m 6,1 km/h (2 Bft) SO 125 0 min
16.11.2018 15:15 14,1 C 32,4 C 10,8 C 50 % 99 % 1024,8 hPa 0,0 l/m 7,9 km/h (2 Bft) SO 135 0 min
16.11.2018 15:10 14,3 C 32,4 C 10,8 C 49 % 99 % 1024,8 hPa 0,0 l/m 6,7 km/h (2 Bft) O-SO 120 0 min
16.11.2018 15:05 14,3 C 32,4 C 10,8 C 49 % 99 % 1024,8 hPa 0,0 l/m 6,7 km/h (2 Bft) S-SO 160 0 min
16.11.2018 15:00 14,2 C 32,4 C 10,8 C 49 % 99 % 1024,8 hPa 0,0 l/m 6,1 km/h (2 Bft) SO 125 0 min
16.11.2018 14:55 14,0 C 32,4 C 10,8 C 49 % 99 % 1024,8 hPa 0,0 l/m 9,7 km/h (2 Bft) S 190 0 min
16.11.2018 14:50 13,9 C 32,4 C 10,8 C 50 % 99 % 1024,8 hPa 0,0 l/m 7,9 km/h (2 Bft) S-SO 160 0 min
16.11.2018 14:45 14,0 C 32,4 C 10,8 C 50 % 99 % 1024,8 hPa 0,0 l/m 6,7 km/h (2 Bft) S-SO 150 0 min
16.11.2018 14:40 13,7 C 32,4 C 10,8 C 51 % 99 % 1024,8 hPa 0,0 l/m 8,5 km/h (2 Bft) S-SO 155 0 min
16.11.2018 14:35 13,7 C 32,4 C 10,8 C 51 % 99 % 1025,8 hPa 0,0 l/m 10,9 km/h (2 Bft) O-SO 120 0 min
16.11.2018 14:30 13,6 C 32,4 C 10,8 C 51 % 99 % 1025,8 hPa 0,0 l/m 10,9 km/h (2 Bft) S 170 0 min
16.11.2018 14:25 13,5 C 32,4 C 10,8 C 51 % 99 % 1025,8 hPa 0,0 l/m 11,5 km/h (2 Bft) SO 130 0 min
16.11.2018 14:20 13,3 C 32,4 C 10,8 C 52 % 99 % 1025,8 hPa 0,0 l/m 10,9 km/h (2 Bft) SO 135 0 min
16.11.2018 14:15 13,2 C 32,4 C 10,8 C 52 % 99 % 1025,8 hPa 0,0 l/m 13,9 km/h (3 Bft) S-SO 160 0 min
16.11.2018 14:10 13,3 C 32,4 C 10,8 C 53 % 99 % 1025,8 hPa 0,0 l/m 15,7 km/h (3 Bft) S-SO 160 0 min
16.11.2018 14:05 13,1 C 32,4 C 10,8 C 54 % 99 % 1025,8 hPa 0,0 l/m 10,3 km/h (2 Bft) S-SO 160 0 min
16.11.2018 14:00 13,1 C 32,4 C 10,8 C 54 % 99 % 1025,8 hPa 0,0 l/m 13,3 km/h (3 Bft) SO 130 0 min
16.11.2018 13:55 12,9 C 32,4 C 10,8 C 55 % 99 % 1025,8 hPa 0,0 l/m 9,7 km/h (2 Bft) SO 135 0 min
16.11.2018 13:50 12,7 C 32,4 C 10,8 C 55 % 99 % 1025,8 hPa 0,0 l/m 16,3 km/h (3 Bft) S-SO 165 0 min
16.11.2018 13:45 12,8 C 32,4 C 10,8 C 55 % 99 % 1025,8 hPa 0,0 l/m 15,7 km/h (3 Bft) SO 140 0 min
16.11.2018 13:40 13,0 C 32,4 C 10,8 C 56 % 99 % 1025,8 hPa 0,0 l/m 9,7 km/h (2 Bft) S-SO 160 0 min
16.11.2018 13:35 12,6 C 32,4 C 10,8 C 56 % 99 % 1025,8 hPa 0,0 l/m 13,9 km/h (3 Bft) S 190 0 min
16.11.2018 13:30 12,3 C 32,4 C 10,8 C 56 % 99 % 1025,8 hPa 0,0 l/m 16,3 km/h (3 Bft) S 170 0 min
16.11.2018 13:25 12,4 C 32,4 C 10,8 C 57 % 99 % 1025,8 hPa 0,0 l/m 16,3 km/h (3 Bft) S-SO 150 0 min
16.11.2018 13:20 12,3 C 32,4 C 10,8 C 57 % 99 % 1025,8 hPa 0,0 l/m 12,1 km/h (2 Bft) SO 145 0 min
16.11.2018 13:15 12,2 C 32,4 C 10,8 C 58 % 99 % 1025,8 hPa 0,0 l/m 16,9 km/h (3 Bft) S-SO 155 0 min
16.11.2018 13:10 12,0 C 32,4 C 10,8 C 59 % 99 % 1025,8 hPa 0,0 l/m 13,9 km/h (3 Bft) S 180 0 min
16.11.2018 13:05 11,5 C 32,4 C 10,8 C 59 % 99 % 1024,8 hPa 0,0 l/m 19,4 km/h (3 Bft) O-SO 110 0 min
16.11.2018 13:00 11,8 C 32,4 C 10,8 C 59 % 99 % 1024,8 hPa 0,0 l/m 18,8 km/h (3 Bft) SO 135 0 min
16.11.2018 12:55 11,6 C 32,4 C 10,8 C 60 % 99 % 1024,8 hPa 0,0 l/m 12,7 km/h (3 Bft) SO 130 0 min
16.11.2018 12:50 11,4 C 32,4 C 10,8 C 61 % 99 % 1024,8 hPa 0,0 l/m 18,8 km/h (3 Bft) S 190 0 min
16.11.2018 12:45 11,3 C 32,4 C 10,8 C 61 % 99 % 1024,8 hPa 0,0 l/m 13,9 km/h (3 Bft) SO 125 0 min
16.11.2018 12:40 11,2 C 32,4 C 10,8 C 62 % 99 % 1024,8 hPa 0,0 l/m 12,7 km/h (3 Bft) SO 130 0 min
16.11.2018 12:35 11,0 C 32,4 C 10,8 C 63 % 99 % 1025,8 hPa 0,0 l/m 19,4 km/h (3 Bft) SO 125 0 min
16.11.2018 12:30 10,8 C 32,4 C 10,8 C 63 % 99 % 1025,8 hPa 0,0 l/m 18,8 km/h (3 Bft) S 175 0 min
16.11.2018 12:25 11,0 C 32,4 C 10,8 C 63 % 99 % 1025,8 hPa 0,0 l/m 12,1 km/h (2 Bft) S-SO 155 0 min
16.11.2018 12:20 11,0 C 32,4 C 10,8 C 64 % 99 % 1024,8 hPa 0,0 l/m 8,5 km/h (2 Bft) SO 125 0 min
16.11.2018 12:15 10,8 C 32,4 C 10,8 C 64 % 99 % 1024,8 hPa 0,0 l/m 13,3 km/h (3 Bft) O-SO 120 0 min
16.11.2018 12:10 10,7 C 32,4 C 10,8 C 64 % 99 % 1024,8 hPa 0,0 l/m 15,1 km/h (3 Bft) S 175 0 min
16.11.2018 12:05 10,5 C 32,4 C 10,8 C 67 % 99 % 1025,8 hPa 0,0 l/m 9,7 km/h (2 Bft) SO 145 0 min
16.11.2018 12:00 10,2 C 32,4 C 10,8 C 67 % 99 % 1025,8 hPa 0,0 l/m 10,9 km/h (2 Bft) S-SW 200 0 min
16.11.2018 11:55 9,9 C 32,4 C 10,8 C 67 % 99 % 1025,8 hPa 0,0 l/m 13,9 km/h (3 Bft) S-SO 150 0 min
16.11.2018 11:50 10,1 C 32,4 C 10,8 C 68 % 99 % 1026,8 hPa 0,0 l/m 10,9 km/h (2 Bft) S 170 0 min
16.11.2018 11:45 9,7 C 32,4 C 10,8 C 68 % 99 % 1026,8 hPa 0,0 l/m 10,3 km/h (2 Bft) S-SO 160 0 min
16.11.2018 11:40 9,5 C 32,4 C 10,8 C 68 % 99 % 1026,8 hPa 0,0 l/m 16,3 km/h (3 Bft) S-SO 150 0 min
16.11.2018 11:35 9,4 C 32,4 C 10,8 C 69 % 99 % 1026,8 hPa 0,0 l/m 20,6 km/h (4 Bft) SO 140 0 min
16.11.2018 11:30 9,3 C 32,4 C 10,8 C 69 % 99 % 1026,8 hPa 0,0 l/m 22,4 km/h (4 Bft) SO 140 0 min
16.11.2018 11:25 9,2 C 32,4 C 10,8 C 70 % 99 % 1026,8 hPa 0,0 l/m 16,9 km/h (3 Bft) SO 135 0 min
16.11.2018 11:20 9,2 C 32,4 C 10,8 C 70 % 99 % 1025,8 hPa 0,0 l/m 15,7 km/h (3 Bft) O-SO 115 2 min
16.11.2018 11:15 9,1 C 32,4 C 10,8 C 71 % 99 % 1025,8 hPa 0,0 l/m 13,3 km/h (3 Bft) S 175 1 min
16.11.2018 11:10 8,9 C 32,4 C 10,8 C 71 % 99 % 1025,8 hPa 0,0 l/m 23,0 km/h (4 Bft) SO 140 0 min
16.11.2018 11:05 8,8 C 32,4 C 10,8 C 71 % 99 % 1026,9 hPa 0,0 l/m 21,8 km/h (4 Bft) SO 145 0 min
16.11.2018 11:00 8,7 C 32,4 C 10,8 C 71 % 99 % 1026,9 hPa 0,0 l/m 19,4 km/h (3 Bft) O 90 4 min
16.11.2018 10:55 8,6 C 32,4 C 10,8 C 72 % 99 % 1026,9 hPa 0,0 l/m 14,5 km/h (3 Bft) S-SO 155 5 min
16.11.2018 10:50 8,4 C 32,4 C 10,8 C 73 % 99 % 1025,9 hPa 0,0 l/m 21,2 km/h (4 Bft) SO 140 6 min
16.11.2018 10:45 8,3 C 32,4 C 10,8 C 73 % 99 % 1025,9 hPa 0,0 l/m 22,4 km/h (4 Bft) S-SO 160 4 min
16.11.2018 10:40 8,2 C 32,4 C 10,8 C 73 % 99 % 1025,9 hPa 0,0 l/m 23,6 km/h (4 Bft) S-SO 155 6 min
16.11.2018 10:35 8,1 C 32,4 C 10,8 C 74 % 99 % 1025,9 hPa 0,0 l/m 21,8 km/h (4 Bft) SO 145 5 min
16.11.2018 10:30 7,9 C 32,4 C 10,8 C 74 % 99 % 1025,9 hPa 0,0 l/m 24,8 km/h (4 Bft) SO 125 2 min
16.11.2018 10:25 7,8 C 32,4 C 10,8 C 75 % 99 % 1025,9 hPa 0,0 l/m 19,4 km/h (3 Bft) O 95 0 min
16.11.2018 10:20 7,8 C 32,4 C 10,8 C 75 % 99 % 1025,9 hPa 0,0 l/m 16,3 km/h (3 Bft) S-SO 155 0 min
16.11.2018 10:15 7,6 C 32,4 C 10,8 C 76 % 99 % 1025,9 hPa 0,0 l/m 26,3 km/h (4 Bft) O-SO 115 0 min
16.11.2018 10:10 7,5 C 32,4 C 10,8 C 76 % 99 % 1025,9 hPa 0,0 l/m 18,2 km/h (3 Bft) SO 140 0 min
16.11.2018 10:05 7,4 C 32,4 C 10,8 C 76 % 99 % 1026,9 hPa 0,0 l/m 22,4 km/h (4 Bft) S-SO 155 0 min
16.11.2018 10:00 7,3 C 32,4 C 10,8 C 76 % 99 % 1026,9 hPa 0,0 l/m 22,4 km/h (4 Bft) SO 145 0 min
16.11.2018 09:55 7,3 C 32,4 C 10,8 C 77 % 99 % 1026,9 hPa 0,0 l/m 14,5 km/h (3 Bft) S-SO 160 0 min
16.11.2018 09:50 7,1 C 32,4 C 10,8 C 77 % 99 % 1025,9 hPa 0,0 l/m 17,6 km/h (3 Bft) S 170 0 min
16.11.2018 09:45 7,0 C 32,4 C 10,8 C 78 % 99 % 1025,9 hPa 0,0 l/m 18,2 km/h (3 Bft) O-SO 120 0 min
16.11.2018 09:40 6,8 C 32,4 C 10,8 C 78 % 99 % 1025,9 hPa 0,0 l/m 26,3 km/h (4 Bft) O-SO 120 0 min
16.11.2018 09:35 6,7 C 32,4 C 10,8 C 78 % 99 % 1025,9 hPa 0,0 l/m 26,3 km/h (4 Bft) N-NO 25 0 min
16.11.2018 09:30 6,7 C 32,4 C 10,8 C 79 % 99 % 1025,9 hPa 0,0 l/m 17,6 km/h (3 Bft) S 190 0 min
16.11.2018 09:25 6,5 C 32,4 C 10,8 C 79 % 99 % 1025,9 hPa 0,0 l/m 15,7 km/h (3 Bft) SO 145 0 min
16.11.2018 09:20 6,5 C 32,4 C 10,8 C 79 % 99 % 1025,9 hPa 0,0 l/m 21,2 km/h (4 Bft) SO 130 0 min
16.11.2018 09:15 6,3 C 32,4 C 10,8 C 80 % 99 % 1025,9 hPa 0,0 l/m 16,3 km/h (3 Bft) O 85 0 min
16.11.2018 09:10 6,2 C 32,4 C 10,8 C 80 % 99 % 1025,9 hPa 0,0 l/m 10,9 km/h (2 Bft) SO 125 0 min
16.11.2018 09:05 6,0 C 32,4 C 10,8 C 81 % 99 % 1025,9 hPa 0,0 l/m 19,4 km/h (3 Bft) S-SO 155 0 min
16.11.2018 09:00 5,9 C 32,4 C 10,8 C 81 % 99 % 1025,9 hPa 0,0 l/m 13,3 km/h (3 Bft) O-SO 115 0 min
16.11.2018 08:55 5,8 C 32,4 C 10,8 C 81 % 99 % 1025,9 hPa 0,0 l/m 7,9 km/h (2 Bft) S 170 0 min
16.11.2018 08:50 5,7 C 32,4 C 10,8 C 82 % 99 % 1024,9 hPa 0,0 l/m 10,9 km/h (2 Bft) SO 140 0 min
16.11.2018 08:45 5,3 C 32,4 C 10,8 C 82 % 99 % 1024,9 hPa 0,0 l/m 10,3 km/h (2 Bft) SO 135 0 min
16.11.2018 08:40 5,2 C 32,4 C 10,8 C 83 % 99 % 1024,9 hPa 0,0 l/m 10,3 km/h (2 Bft) SO 140 0 min
16.11.2018 08:35 5,1 C 32,4 C 10,8 C 83 % 99 % 1024,9 hPa 0,0 l/m 15,7 km/h (3 Bft) SO 125 0 min
16.11.2018 08:30 5,0 C 32,4 C 10,8 C 83 % 99 % 1024,9 hPa 0,0 l/m 10,9 km/h (2 Bft) SO 140 0 min
16.11.2018 08:25 4,9 C 32,4 C 10,8 C 83 % 99 % 1024,9 hPa 0,0 l/m 12,1 km/h (2 Bft) SO 135 0 min
16.11.2018 08:20 4,8 C 32,4 C 10,8 C 83 % 99 % 1024,9 hPa 0,0 l/m 8,5 km/h (2 Bft) SO 145 0 min
16.11.2018 08:15 4,7 C 32,4 C 10,8 C 83 % 99 % 1024,9 hPa 0,0 l/m 5,4 km/h (2 Bft) S-SO 160 0 min
16.11.2018 08:10 4,7 C 32,4 C 10,8 C 83 % 99 % 1024,9 hPa 0,0 l/m 8,5 km/h (2 Bft) S-SO 155 0 min
16.11.2018 08:05 4,7 C 32,4 C 10,8 C 83 % 99 % 1024,9 hPa 0,0 l/m 9,1 km/h (2 Bft) SO 145 0 min
16.11.2018 08:00 4,8 C 32,4 C 10,8 C 83 % 99 % 1024,9 hPa 0,0 l/m 14,5 km/h (3 Bft) S-SO 150 0 min
16.11.2018 07:55 4,8 C 32,4 C 10,8 C 84 % 99 % 1024,9 hPa 0,0 l/m 16,3 km/h (3 Bft) SO 135 0 min
16.11.2018 07:50 4,7 C 32,4 C 10,8 C 84 % 99 % 1025,9 hPa 0,0 l/m 8,5 km/h (2 Bft) S 170 0 min
16.11.2018 07:45 4,7 C 32,4 C 10,8 C 83 % 99 % 1025,9 hPa 0,0 l/m 6,1 km/h (2 Bft) O-SO 110 0 min
16.11.2018 07:40 4,7 C 32,4 C 10,8 C 83 % 99 % 1025,9 hPa 0,0 l/m 6,7 km/h (2 Bft) SO 145 0 min
16.11.2018 07:35 4,7 C 32,4 C 10,8 C 84 % 99 % 1024,9 hPa 0,0 l/m 12,1 km/h (2 Bft) SO 130 0 min
16.11.2018 07:30 4,7 C 32,4 C 10,8 C 84 % 99 % 1024,9 hPa 0,0 l/m 4,8 km/h (1 Bft) SO 125 0 min
16.11.2018 07:25 4,7 C 32,4 C 10,8 C 83 % 99 % 1024,9 hPa 0,0 l/m 13,9 km/h (3 Bft) O-SO 120 0 min
16.11.2018 07:20 4,7 C 32,4 C 10,8 C 83 % 99 % 1023,9 hPa 0,0 l/m 15,7 km/h (3 Bft) SO 145 0 min
16.11.2018 07:15 4,8 C 32,4 C 10,8 C 83 % 99 % 1023,9 hPa 0,0 l/m 10,9 km/h (2 Bft) SO 135 0 min
16.11.2018 07:10 4,9 C 32,4 C 10,8 C 83 % 99 % 1023,9 hPa 0,0 l/m 13,3 km/h (3 Bft) SO 140 0 min
16.11.2018 07:05 4,9 C 32,4 C 10,8 C 83 % 99 % 1024,9 hPa 0,0 l/m 10,9 km/h (2 Bft) SO 135 0 min
16.11.2018 07:00 5,0 C 32,4 C 10,8 C 83 % 99 % 1024,9 hPa 0,0 l/m 8,5 km/h (2 Bft) O-SO 120 0 min
16.11.2018 06:55 5,0 C 32,4 C 10,8 C 83 % 99 % 1024,9 hPa 0,0 l/m 11,5 km/h (2 Bft) SO 145 0 min
16.11.2018 06:50 5,1 C 32,4 C 10,8 C 83 % 99 % 1024,9 hPa 0,0 l/m 12,1 km/h (2 Bft) O 90 0 min
16.11.2018 06:45 5,1 C 32,4 C 10,8 C 83 % 99 % 1024,9 hPa 0,0 l/m 12,7 km/h (3 Bft) SO 125 0 min
16.11.2018 06:40 5,1 C 32,4 C 10,8 C 83 % 99 % 1024,9 hPa 0,0 l/m 12,1 km/h (2 Bft) S-SO 150 0 min
16.11.2018 06:35 5,1 C 32,4 C 10,8 C 83 % 99 % 1023,9 hPa 0,0 l/m 12,1 km/h (2 Bft) O-SO 120 0 min
16.11.2018 06:30 5,1 C 32,4 C 10,8 C 83 % 99 % 1023,9 hPa 0,0 l/m 12,1 km/h (2 Bft) S 175 0 min
16.11.2018 06:25 5,1 C 32,4 C 10,8 C 83 % 99 % 1023,9 hPa 0,0 l/m 12,1 km/h (2 Bft) SO 140 0 min
16.11.2018 06:20 5,2 C 32,4 C 10,8 C 84 % 99 % 1024,9 hPa 0,0 l/m 9,7 km/h (2 Bft) SO 130 0 min
16.11.2018 06:15 5,2 C 32,4 C 10,8 C 84 % 99 % 1024,9 hPa 0,0 l/m 18,8 km/h (3 Bft) SO 125 0 min
16.11.2018 06:10 5,2 C 32,4 C 10,8 C 84 % 99 % 1024,9 hPa 0,0 l/m 18,8 km/h (3 Bft) S-SO 150 0 min
16.11.2018 06:05 5,1 C 32,4 C 10,8 C 84 % 99 % 1023,9 hPa 0,0 l/m 10,3 km/h (2 Bft) S-SO 155 0 min
16.11.2018 06:00 5,1 C 32,4 C 10,8 C 84 % 99 % 1023,9 hPa 0,0 l/m 13,3 km/h (3 Bft) SO 135 0 min
16.11.2018 05:55 5,0 C 32,4 C 10,8 C 84 % 99 % 1023,9 hPa 0,0 l/m 12,1 km/h (2 Bft) O-SO 120 0 min
16.11.2018 05:50 5,1 C 32,4 C 10,8 C 84 % 99 % 1023,9 hPa 0,0 l/m 13,9 km/h (3 Bft) SO 135 0 min
16.11.2018 05:45 5,1 C 32,4 C 10,8 C 84 % 99 % 1023,9 hPa 0,0 l/m 14,5 km/h (3 Bft) S-SO 160 0 min
16.11.2018 05:40 5,1 C 32,4 C 10,8 C 84 % 99 % 1023,9 hPa 0,0 l/m 16,9 km/h (3 Bft) S-SO 160 0 min
16.11.2018 05:35 5,1 C 32,4 C 10,8 C 84 % 99 % 1024,9 hPa 0,0 l/m 10,9 km/h (2 Bft) S-SO 150 0 min
16.11.2018 05:30 5,1 C 32,4 C 10,8 C 84 % 99 % 1024,9 hPa 0,0 l/m 16,9 km/h (3 Bft) SO 140 0 min
16.11.2018 05:25 5,1 C 32,4 C 10,8 C 84 % 99 % 1024,9 hPa 0,0 l/m 15,7 km/h (3 Bft) SO 135 0 min
16.11.2018 05:20 5,1 C 32,4 C 10,8 C 84 % 99 % 1023,9 hPa 0,0 l/m 18,2 km/h (3 Bft) SO 145 0 min
16.11.2018 05:15 5,1 C 32,4 C 10,8 C 84 % 99 % 1023,9 hPa 0,0 l/m 15,7 km/h (3 Bft) SO 130 0 min
16.11.2018 05:10 5,0 C 32,4 C 10,8 C 84 % 99 % 1023,9 hPa 0,0 l/m 13,3 km/h (3 Bft) SO 135 0 min
16.11.2018 05:05 5,0 C 32,4 C 10,8 C 84 % 99 % 1024,9 hPa 0,0 l/m 20,0 km/h (4 Bft) SO 145 0 min
16.11.2018 05:00 4,9 C 32,4 C 10,8 C 84 % 99 % 1024,9 hPa 0,0 l/m 18,8 km/h (3 Bft) S 175 0 min
16.11.2018 04:55 5,0 C 32,4 C 10,8 C 84 % 99 % 1024,9 hPa 0,0 l/m 10,9 km/h (2 Bft) SW 215 0 min
16.11.2018 04:50 5,0 C 32,4 C 10,8 C 84 % 99 % 1023,9 hPa 0,0 l/m 15,7 km/h (3 Bft) S-SO 155 0 min
16.11.2018 04:45 5,0 C 32,4 C 10,8 C 84 % 99 % 1023,9 hPa 0,0 l/m 16,9 km/h (3 Bft) SO 145 0 min
16.11.2018 04:40 4,9 C 32,4 C 10,8 C 84 % 99 % 1023,9 hPa 0,0 l/m 25,4 km/h (4 Bft) O 90 0 min
16.11.2018 04:35 4,9 C 32,4 C 10,8 C 84 % 99 % 1024,9 hPa 0,0 l/m 16,9 km/h (3 Bft) SO 140 0 min
16.11.2018 04:30 4,9 C 32,4 C 10,8 C 84 % 99 % 1024,9 hPa 0,0 l/m 19,4 km/h (3 Bft) S-SO 160 0 min
16.11.2018 04:25 5,0 C 32,4 C 10,8 C 84 % 99 % 1024,9 hPa 0,0 l/m 20,6 km/h (4 Bft) SO 135 0 min
16.11.2018 04:20 4,9 C 32,4 C 10,8 C 84 % 99 % 1023,9 hPa 0,0 l/m 20,6 km/h (4 Bft) SO 140 0 min
16.11.2018 04:15 4,9 C 32,4 C 10,8 C 84 % 99 % 1023,9 hPa 0,0 l/m 16,9 km/h (3 Bft) SO 130 0 min
16.11.2018 04:10 4,9 C 32,4 C 10,8 C 84 % 99 % 1023,9 hPa 0,0 l/m 14,5 km/h (3 Bft) S-SO 150 0 min
16.11.2018 04:05 4,9 C 32,4 C 10,8 C 84 % 99 % 1023,9 hPa 0,0 l/m 15,7 km/h (3 Bft) S-SO 150 0 min
16.11.2018 04:00 5,0 C 32,4 C 10,8 C 84 % 99 % 1023,9 hPa 0,0 l/m 18,2 km/h (3 Bft) S-SW 205 0 min
16.11.2018 03:55 4,9 C 32,4 C 10,8 C 84 % 99 % 1023,9 hPa 0,0 l/m 23,6 km/h (4 Bft) SO 140 0 min
16.11.2018 03:50 4,9 C 32,4 C 10,8 C 84 % 99 % 1023,9 hPa 0,0 l/m 26,3 km/h (4 Bft) S-SO 150 0 min
16.11.2018 03:45 4,8 C 32,4 C 10,8 C 84 % 99 % 1023,9 hPa 0,0 l/m 13,9 km/h (3 Bft) S-SO 155 0 min
16.11.2018 03:40 4,7 C 32,4 C 10,8 C 84 % 99 % 1023,9 hPa 0,0 l/m 16,3 km/h (3 Bft) SO 135 0 min
16.11.2018 03:35 4,8 C 32,4 C 10,8 C 84 % 99 % 1023,9 hPa 0,0 l/m 14,5 km/h (3 Bft) S 170 0 min
16.11.2018 03:30 4,7 C 32,4 C 10,8 C 84 % 99 % 1023,9 hPa 0,0 l/m 13,9 km/h (3 Bft) S-SO 160 0 min
16.11.2018 03:25 4,7 C 32,4 C 10,8 C 84 % 99 % 1023,9 hPa 0,0 l/m 16,3 km/h (3 Bft) S-SO 155 0 min
16.11.2018 03:20 4,7 C 32,4 C 10,8 C 84 % 99 % 1023,9 hPa 0,0 l/m 9,1 km/h (2 Bft) SO 130 0 min
16.11.2018 03:15 4,8 C 32,4 C 10,8 C 84 % 99 % 1023,9 hPa 0,0 l/m 14,5 km/h (3 Bft) SO 135 0 min
16.11.2018 03:10 4,7 C 32,4 C 10,8 C 84 % 99 % 1023,9 hPa 0,0 l/m 18,8 km/h (3 Bft) SO 140 0 min
16.11.2018 03:05 4,7 C 32,4 C 10,8 C 83 % 99 % 1023,9 hPa 0,0 l/m 16,3 km/h (3 Bft) SO 135 0 min
16.11.2018 03:00 4,8 C 32,4 C 10,8 C 83 % 99 % 1023,9 hPa 0,0 l/m 18,8 km/h (3 Bft) SO 135 0 min
16.11.2018 02:55 4,8 C 32,4 C 10,8 C 83 % 99 % 1023,9 hPa 0,0 l/m 19,4 km/h (3 Bft) S-SO 150 0 min
16.11.2018 02:50 4,8 C 32,4 C 10,8 C 83 % 99 % 1023,9 hPa 0,0 l/m 20,6 km/h (4 Bft) SO 130 0 min
16.11.2018 02:45 4,8 C 32,4 C 10,8 C 83 % 99 % 1023,9 hPa 0,0 l/m 18,2 km/h (3 Bft) O 85 0 min
16.11.2018 02:40 4,8 C 32,4 C 10,8 C 83 % 99 % 1023,9 hPa 0,0 l/m 18,8 km/h (3 Bft) SO 125 0 min
16.11.2018 02:35 4,8 C 32,4 C 10,8 C 82 % 99 % 1024,9 hPa 0,0 l/m 16,3 km/h (3 Bft) O-SO 120 0 min
16.11.2018 02:30 4,9 C 32,4 C 10,8 C 82 % 99 % 1024,9 hPa 0,0 l/m 17,6 km/h (3 Bft) S-SO 160 0 min
16.11.2018 02:25 4,8 C 32,4 C 10,8 C 83 % 99 % 1024,9 hPa 0,0 l/m 20,6 km/h (4 Bft) O-SO 120 0 min
16.11.2018 02:20 4,8 C 32,4 C 10,8 C 82 % 99 % 1024,9 hPa 0,0 l/m 16,3 km/h (3 Bft) S 170 0 min
16.11.2018 02:15 4,8 C 32,4 C 10,8 C 82 % 99 % 1024,9 hPa 0,0 l/m 15,7 km/h (3 Bft) O-SO 120 0 min
16.11.2018 02:10 4,9 C 32,4 C 10,8 C 82 % 99 % 1024,9 hPa 0,0 l/m 15,7 km/h (3 Bft) S 175 0 min
16.11.2018 02:05 4,9 C 32,4 C 10,8 C 82 % 99 % 1024,9 hPa 0,0 l/m 12,1 km/h (2 Bft) S 185 0 min
16.11.2018 02:00 4,9 C 32,4 C 10,8 C 82 % 99 % 1024,9 hPa 0,0 l/m 18,8 km/h (3 Bft) SO 125 0 min
16.11.2018 01:55 4,9 C 32,4 C 10,8 C 82 % 99 % 1024,9 hPa 0,0 l/m 16,9 km/h (3 Bft) O-SO 120 0 min
16.11.2018 01:50 5,0 C 32,4 C 10,8 C 82 % 99 % 1023,9 hPa 0,0 l/m 21,2 km/h (4 Bft) SO 135 0 min
16.11.2018 01:45 5,0 C 32,4 C 10,8 C 82 % 99 % 1023,9 hPa 0,0 l/m 21,8 km/h (4 Bft) SO 145 0 min
16.11.2018 01:40 5,0 C 32,4 C 10,8 C 82 % 99 % 1023,9 hPa 0,0 l/m 17,6 km/h (3 Bft) S-SW 210 0 min
16.11.2018 01:35 5,1 C 32,4 C 10,8 C 82 % 99 % 1023,9 hPa 0,0 l/m 24,2 km/h (4 Bft) SO 145 0 min
16.11.2018 01:30 5,0 C 32,4 C 10,8 C 83 % 99 % 1023,9 hPa 0,0 l/m 18,8 km/h (3 Bft) SO 130 0 min
16.11.2018 01:25 5,1 C 32,4 C 10,8 C 83 % 99 % 1023,9 hPa 0,0 l/m 21,8 km/h (4 Bft) S 190 0 min
16.11.2018 01:20 5,1 C 32,4 C 10,8 C 83 % 99 % 1023,9 hPa 0,0 l/m 27,8 km/h (5 Bft) S 175 0 min
16.11.2018 01:15 5,1 C 32,4 C 10,8 C 83 % 99 % 1023,9 hPa 0,0 l/m 15,7 km/h (3 Bft) SO 140 0 min
16.11.2018 01:10 5,1 C 32,4 C 10,8 C 83 % 99 % 1023,9 hPa 0,0 l/m 16,9 km/h (3 Bft) S-SO 165 0 min
16.11.2018 01:05 5,1 C 32,4 C 10,8 C 83 % 99 % 1023,9 hPa 0,0 l/m 17,6 km/h (3 Bft) S 170 0 min
16.11.2018 01:00 5,1 C 32,4 C 10,8 C 83 % 99 % 1023,9 hPa 0,0 l/m 25,4 km/h (4 Bft) SO 140 0 min
16.11.2018 00:55 5,1 C 32,4 C 10,8 C 83 % 99 % 1023,9 hPa 0,0 l/m 18,8 km/h (3 Bft) S 190 0 min
16.11.2018 00:50 5,1 C 32,4 C 10,8 C 83 % 99 % 1023,9 hPa 0,0 l/m 21,8 km/h (4 Bft) S-SO 150 0 min
16.11.2018 00:45 5,1 C 32,4 C 10,8 C 83 % 99 % 1023,9 hPa 0,0 l/m 18,2 km/h (3 Bft) SO 145 0 min
16.11.2018 00:40 5,1 C 32,4 C 10,8 C 83 % 99 % 1023,9 hPa 0,0 l/m 15,7 km/h (3 Bft) S-SO 155 0 min
16.11.2018 00:35 5,1 C 32,4 C 10,8 C 83 % 99 % 1023,9 hPa 0,0 l/m 14,5 km/h (3 Bft) S-SO 150 0 min
16.11.2018 00:30 5,1 C 32,4 C 10,8 C 83 % 99 % 1023,9 hPa 0,0 l/m 21,8 km/h (4 Bft) S-SO 165 0 min
16.11.2018 00:25 5,0 C 32,4 C 10,8 C 83 % 99 % 1023,9 hPa 0,0 l/m 12,1 km/h (2 Bft) S 170 0 min
16.11.2018 00:20 5,1 C 32,4 C 10,8 C 83 % 99 % 1023,9 hPa 0,0 l/m 19,4 km/h (3 Bft) SO 140 0 min
16.11.2018 00:15 5,1 C 32,4 C 10,8 C 83 % 99 % 1023,9 hPa 0,0 l/m 15,7 km/h (3 Bft) S-SW 210 0 min
16.11.2018 00:10 5,1 C 32,4 C 10,8 C 83 % 99 % 1023,9 hPa 0,0 l/m 18,2 km/h (3 Bft) S-SO 165 0 min
16.11.2018 00:05 5,0 C 32,4 C 10,8 C 83 % 99 % 1022,9 hPa 0,0 l/m 17,6 km/h (3 Bft) S-SO 150 0 min
16.11.2018 00:00 5,0 C 32,4 C 10,8 C 83 % 99 % 1022,9 hPa 0,0 l/m 14,5 km/h (3 Bft) S-SO 160 0 min
_ Min-Zeit 03:05 00:00 00:00 14:55 00:00 00:00 - 16:45 - - -
Minimum _ 4,7 C 32,4 C 10,8 C 49 % 99 % 1022,9 hPa - 0,6 km/h (0 Bft) - - -
_ Max-Zeit 15:40 00:00 00:00 03:10 00:00 09:55 00:00 01:20 - - 10:40
Maximum _ 14,5 C 32,4 C 10,8 C 84 % 99 % 1026,9 hPa 0,0 l/m 27,8 km/h
S (5 Bft)
- - 6 min
Durchschnitt _ 7,9 C 32,4 C 10,8 C 73 % 99 % 1025,0 hPa #0,0 l/m 13,8 km/h (3 Bft) SO - #35 min.